[[{"header":{"parameterUnit":"m.s-1","parameterCategory":1,"la1":30.2991,"la2":30.254,"lo1":-89.0895,"lo2":-89.0444,"dy":0.0017,"dx":0.0017,"nx":28,"ny":28,"refTime":"2023-03-27T15:00:00:Z","depth":0,"parameterNumber":2,"parameterNumberName":"U-component_of_WINDS"},"data":[0,0,0,0,0,0,0,0,0,0,0,0,0,0,0,0,0,0,0,0,0,0,0,0,0,0,0,0,0,0,0,0,0,0,0,0,0,0,0,0,0,0,0,0,0,0,0,0,0,0,0,0,0,0,0,0,0,0,-0.85,-0.8499,0,-0.8419,-0.8418,-0.8417,-0.8341,-0.834,-0.8339,-0.8338,-0.8254,-0.8252,-0.8251,0,0,0,0,0,0,0,0,0,0,0,0,0,-0.8586,-0.8585,-0.85,-0.8499,-0.8498,-0.8419,-0.8418,-0.8417,-0.8341,-0.834,-0.8339,-0.8338,-0.8254,-0.8252,-0.8251,0,0,0,0,0,0,0,0,0,0,0,0,0,-0.8531,-0.8585,-0.85,-0.8451,-0.8445,-0.8419,-0.8418,-0.8416,-0.8341,-0.834,-0.8338,-0.8337,-0.8255,-0.8253,-0.825,-0.8266,0,0,-0.8244,-0.8243,0,0,0,0,0,0,0,0,-0.8535,-0.8528,-0.8459,-0.8454,-0.8448,-0.8388,-0.8417,-0.8366,-0.8342,-0.8381,-0.8338,-0.8336,-0.8299,-0.8294,-0.8281,-0.8262,-0.8258,-0.8244,-0.8243,-0.8242,-0.8241,0,0,0,0,0,0,0,-0.8538,-0.8531,-0.8468,-0.8458,-0.8451,-0.8431,-0.8422,-0.8407,-0.8349,-0.8377,-0.8372,-0.8363,-0.8296,-0.8284,-0.8279,-0.8257,-0.8244,-0.8242,-0.8241,-0.824,-0.8244,-0.8245,0,0,0,0,0,0,-0.855,-0.8535,-0.847,-0.8465,-0.8489,-0.8431,-0.8421,-0.8409,-0.8349,-0.8338,-0.8364,-0.836,-0.8288,-0.8281,-0.8276,-0.8288,-0.8242,-0.824,-0.8239,-0.8243,-0.8244,-0.8246,0,0,0,0,0,0,-0.8552,-0.8545,-0.8473,-0.8498,-0.8488,-0.8431,-0.8419,-0.8408,-0.8395,-0.8339,-0.8328,-0.8362,-0.8286,-0.8279,-0.8269,-0.8284,-0.8239,-0.8237,-0.8241,-0.8243,-0.8245,-0.8315,0,0,0,0,0,0,-0.8555,-0.8546,-0.8552,-0.8499,-0.8487,-0.8469,-0.842,-0.8408,-0.8392,-0.8386,-0.8334,-0.8325,-0.8285,-0.8272,-0.8267,-0.8281,-0.8236,-0.8239,-0.8242,-0.8244,-0.8311,-0.8319,-0.8326,0,0,0,0,0,-0.8558,-0.8576,-0.8553,-0.8546,-0.8493,-0.847,-0.8463,-0.8417,-0.8394,-0.8399,-0.8362,-0.8326,-0.8284,-0.8272,-0.8265,-0.8279,-0.8238,-0.8241,-0.8244,-0.8308,-0.8318,-0.8326,0,0,0,0,0,0,-0.8632,-0.8568,-0.8542,-0.8543,-0.8512,-0.8457,-0.8462,-0.8429,-0.8405,-0.8399,-0.8343,-0.8332,-0.8328,-0.8302,-0.829,-0.8289,-0.8256,-0.8258,-0.8306,-0.8315,-0.8323,-0.8329,-0.8234,0,0,0,0,0,-0.8648,-0.8636,-0.858,-0.8585,-0.8571,-0.852,-0.8508,-0.8475,-0.8441,-0.8428,-0.8391,-0.8359,-0.8338,-0.8325,-0.8303,-0.8307,-0.8294,-0.8313,-0.8321,-0.8327,-0.8329,-0.8327,-0.8335,-0.8256,-0.8256,-0.8256,0,0,-0.8682,-0.8645,-0.864,-0.8599,-0.8572,-0.8559,-0.8509,-0.8498,-0.8487,-0.8426,-0.8414,-0.8386,-0.8346,-0.8343,-0.8339,-0.8321,-0.8348,-0.8331,-0.8337,-0.8335,-0.8331,-0.8339,-0.8345,-0.8258,-0.8257,-0.8257,0,0,-0.8736,-0.8708,-0.8709,-0.8682,-0.8641,-0.8606,-0.8607,-0.8556,-0.8535,-0.8522,-0.8475,-0.8461,-0.8427,-0.84,-0.8382,-0.8424,-0.8389,-0.8418,-0.8458,-0.8457,-0.8463,-0.8468,-0.8481,-0.8487,-0.8421,-0.8421,-0.8421,0,-0.8783,-0.8762,-0.8713,-0.8704,-0.8686,-0.863,-0.863,-0.8606,-0.856,-0.8549,-0.8529,-0.8484,-0.8453,-0.8442,-0.8452,-0.844,-0.8437,-0.8424,-0.8466,-0.8471,-0.8475,-0.8487,-0.8492,-0.8425,-0.8424,-0.8424,-0.8423,0,-0.8821,-0.8807,-0.8812,-0.8769,-0.8752,-0.8747,-0.8697,-0.8685,-0.8654,-0.8621,-0.8607,-0.8568,-0.8537,-0.8532,-0.8501,-0.8515,-0.8505,-0.8477,-0.8441,-0.8487,-0.8497,-0.8502,-0.843,-0.8429,-0.8427,-0.8426,0,0,-0.892,-0.8849,-0.8851,-0.883,-0.878,-0.8768,-0.876,-0.8729,-0.8719,-0.8689,-0.868,-0.8652,-0.8624,-0.8604,-0.8569,-0.8569,-0.8602,-0.854,-0.8538,-0.8551,-0.8614,-0.8635,-0.8641,-0.8579,-0.858,-0.8581,-0.8617,0,-0.8965,-0.8948,-0.8903,-0.8899,-0.8884,-0.883,-0.8823,-0.8791,-0.8759,-0.8742,-0.8706,-0.8687,-0.8653,-0.864,-0.8637,-0.8599,-0.8614,-0.8596,-0.8569,-0.8568,-0.858,-0.8647,-0.867,-0.8706,-0.8621,-0.8621,-0.8622,0,-0.9015,-0.8988,-0.8983,-0.8932,-0.8924,-0.8919,-0.8885,-0.887,-0.8831,-0.8808,-0.8785,-0.8746,-0.8733,-0.8702,-0.8682,-0.8671,-0.8657,-0.8637,-0.8637,-0.8632,-0.8597,-0.8643,-0.8716,-0.8721,-0.8628,-0.8628,-0.8627,0,-0.9087,-0.9049,-0.904,-0.9024,-0.8965,-0.8961,-0.8937,-0.8897,-0.8881,-0.8851,-0.884,-0.881,-0.8793,-0.877,-0.8724,-0.8705,-0.8709,-0.8674,-0.8688,-0.8689,-0.8691,-0.8691,-0.8762,-0.8684,-0.8684,-0.8684,-0.8684,0,-0.9141,-0.914,-0.9071,-0.9066,-0.9062,-0.901,-0.9007,-0.8977,-0.8942,-0.8929,-0.888,-0.8869,-0.8809,-0.879,-0.8754,-0.8742,-0.8735,-0.8715,-0.8705,-0.8719,-0.8721,-0.8708,-0.8704,-0.8685,-0.8685,-0.8685,-0.8684,0,-0.922,-0.9174,-0.9161,-0.9105,-0.9091,-0.9091,-0.9043,-0.9035,-0.9,-0.8984,-0.8977,-0.8922,-0.8897,-0.8849,-0.8811,-0.8786,-0.8782,-0.8766,-0.8795,-0.8789,-0.8806,-0.8804,-0.887,-0.8875,-0.8796,-0.8796,-0.8797,0,-0.9258,-0.9255,-0.9199,-0.9187,-0.9163,-0.9145,-0.9127,-0.9075,-0.9059,-0.9014,-0.9011,-0.8983,-0.8957,-0.892,-0.8876,-0.8846,-0.8827,-0.8852,-0.8823,-0.8836,-0.8826,-0.8826,-0.8825,-0.8859,-0.886,-0.8861,-0.8862,0,-0.9328,-0.9305,-0.9283,-0.9251,-0.9232,-0.9205,-0.9175,-0.9168,-0.9108,-0.9093,-0.9066,-0.9047,-0.9007,-0.8979,-0.8942,-0.8915,-0.8878,-0.8872,-0.8873,-0.8886,-0.8903,-0.8893,-0.8812,-0.887,-0.8869,-0.8869,-0.8868,-0.8868,-0.9387,-0.9381,-0.934,-0.9316,-0.9288,-0.9261,-0.925,-0.9213,-0.9191,-0.9155,-0.9125,-0.9101,-0.9061,-0.9008,-0.8983,-0.8962,-0.8945,-0.8948,-0.8948,-0.8949,-0.8954,-0.8907,-0.8956,-0.8955,-0.8955,-0.8955,-0.8955,0,-0.9454,-0.9424,-0.9403,-0.9362,-0.9342,-0.931,-0.9274,-0.926,-0.924,-0.9205,-0.9181,-0.915,-0.9121,-0.9075,-0.9043,-0.9035,-0.9017,-0.9028,-0.9027,-0.9021,-0.8972,-0.8973,-0.9043,-0.9043,-0.9043,-0.9043,-0.9043,-0.9043,-0.9486,-0.9475,-0.9447,-0.942,-0.939,-0.9366,-0.9349,-0.9323,-0.9295,-0.9262,-0.9239,-0.9209,-0.9169,-0.9133,-0.9105,-0.9091,-0.9081,-0.9097,-0.9079,-0.9033,-0.9025,-0.9017,-0.9018,-0.9096,-0.9096,-0.9129,-0.913,-0.913]},{"header":{"parameterUnit":"m.s-1","parameterCategory":1,"la1":30.2991,"la2":30.254,"lo1":-89.0895,"lo2":-89.0444,"dy":0.0017,"dx":0.0017,"nx":28,"ny":28,"refTime":"2023-03-27T15:00:00:Z","depth":0,"parameterNumber":3,"parameterNumberName":"V-component_of_WINDS"},"data":[0,0,0,0,0,0,0,0,0,0,0,0,0,0,0,0,0,0,0,0,0,0,0,0,0,0,0,0,0,0,0,0,0,0,0,0,0,0,0,0,0,0,0,0,0,0,0,0,0,0,0,0,0,0,0,0,0,0,2.2381,2.2381,0,2.2384,2.2384,2.2384,2.2383,2.2383,2.2382,2.2382,2.2385,2.2385,2.2385,0,0,0,0,0,0,0,0,0,0,0,0,0,2.2371,2.2372,2.2381,2.2381,2.2381,2.2384,2.2384,2.2384,2.2383,2.2383,2.2382,2.2382,2.2385,2.2385,2.2385,0,0,0,0,0,0,0,0,0,0,0,0,0,2.2375,2.2372,2.2381,2.238,2.238,2.2384,2.2384,2.2384,2.2383,2.2383,2.2382,2.2382,2.2385,2.2385,2.2385,2.2389,0,0,2.2386,2.2386,0,0,0,0,0,0,0,0,2.2375,2.2376,2.238,2.238,2.238,2.2383,2.2382,2.2386,2.2383,2.2382,2.2382,2.2382,2.2384,2.2385,2.2386,2.2389,2.239,2.2386,2.2386,2.2386,2.2386,0,0,0,0,0,0,0,2.2375,2.2375,2.2382,2.238,2.238,2.238,2.238,2.2383,2.2384,2.2382,2.2382,2.2382,2.2384,2.2385,2.2386,2.239,2.2386,2.2386,2.2386,2.2386,2.2398,2.2398,0,0,0,0,0,0,2.2375,2.2375,2.2382,2.2382,2.2377,2.238,2.238,2.2382,2.2384,2.2384,2.2382,2.2382,2.2385,2.2385,2.2386,2.2391,2.2386,2.2386,2.2387,2.2397,2.2398,2.2398,0,0,0,0,0,0,2.2374,2.2375,2.2382,2.2379,2.2379,2.238,2.2382,2.2382,2.2383,2.2384,2.2384,2.2383,2.2385,2.2385,2.2389,2.2391,2.2387,2.2387,2.2397,2.2397,2.2398,2.2401,0,0,0,0,0,0,2.2374,2.2375,2.2377,2.2379,2.238,2.2385,2.2382,2.2382,2.2384,2.2384,2.2385,2.2385,2.2385,2.2388,2.2389,2.2391,2.2387,2.2397,2.2397,2.2398,2.2401,2.2401,2.2402,0,0,0,0,0,2.2374,2.2377,2.2377,2.2378,2.2382,2.2385,2.2385,2.2386,2.2384,2.2386,2.2386,2.2385,2.2391,2.2389,2.2389,2.2392,2.2397,2.2397,2.2398,2.24,2.2401,2.2402,0,0,0,0,0,0,2.2375,2.2377,2.2377,2.2381,2.2383,2.2385,2.2387,2.2386,2.2388,2.2388,2.2387,2.2388,2.2391,2.2392,2.239,2.2396,2.2393,2.2394,2.2395,2.2396,2.2397,2.2397,2.2387,0,0,0,0,0,2.2376,2.2379,2.238,2.2384,2.2385,2.2386,2.2387,2.2387,2.2389,2.2389,2.239,2.2391,2.2393,2.2395,2.2397,2.2401,2.2401,2.2403,2.2403,2.2404,2.2404,2.2407,2.2408,2.2399,2.2399,2.2399,0,0,2.2377,2.2379,2.2381,2.2384,2.2386,2.2388,2.2386,2.2389,2.2391,2.239,2.2393,2.2394,2.2395,2.2399,2.2401,2.2399,2.2407,2.2404,2.2405,2.2405,2.2407,2.2408,2.2409,2.2399,2.2399,2.2399,0,0,2.2382,2.2383,2.2386,2.2388,2.239,2.2391,2.2392,2.2394,2.2394,2.2398,2.2397,2.2399,2.2403,2.2404,2.2405,2.2411,2.241,2.2411,2.2414,2.2417,2.2417,2.2418,2.242,2.2421,2.2412,2.2412,2.2412,0,2.2383,2.2387,2.2388,2.2391,2.2393,2.2392,2.2396,2.2397,2.24,2.2401,2.2399,2.2404,2.2405,2.241,2.2411,2.2412,2.2413,2.2411,2.2417,2.2418,2.2418,2.2421,2.2421,2.2412,2.2412,2.2412,2.2412,0,2.2389,2.2392,2.2395,2.2398,2.24,2.2403,2.2404,2.2406,2.2406,2.2407,2.241,2.2412,2.2414,2.2415,2.2415,2.2419,2.2419,2.2417,2.2415,2.242,2.2422,2.2422,2.2412,2.2412,2.2412,2.2412,0,0,2.2394,2.2398,2.2399,2.2401,2.2404,2.2406,2.2409,2.2412,2.2414,2.2416,2.2418,2.2422,2.2421,2.2422,2.2422,2.2424,2.2429,2.2423,2.2423,2.2424,2.2434,2.2436,2.2437,2.2428,2.2428,2.2429,2.2434,0,2.2399,2.2405,2.2406,2.2411,2.2414,2.2414,2.2417,2.2419,2.242,2.2422,2.2423,2.2426,2.2424,2.2425,2.2427,2.2428,2.2431,2.2427,2.2431,2.2431,2.2431,2.2438,2.2439,2.2444,2.2435,2.2435,2.2435,0,2.2405,2.2408,2.2414,2.2417,2.2418,2.2421,2.2424,2.2426,2.2428,2.2429,2.2431,2.243,2.2434,2.2431,2.2436,2.2434,2.2435,2.2436,2.2436,2.2436,2.2433,2.2438,2.2446,2.2447,2.2437,2.2437,2.2436,0,2.2408,2.2413,2.2418,2.2419,2.2423,2.2425,2.2426,2.2428,2.243,2.2433,2.2434,2.2437,2.2438,2.244,2.2441,2.2439,2.2445,2.2443,2.2446,2.2446,2.2447,2.2447,2.2455,2.2448,2.2448,2.2448,2.2448,0,2.2413,2.2417,2.2419,2.2422,2.2426,2.2427,2.2431,2.2433,2.2435,2.2438,2.2437,2.244,2.244,2.2443,2.2443,2.2447,2.2448,2.2448,2.2448,2.2449,2.2449,2.245,2.2449,2.2448,2.2448,2.2448,2.2448,0,2.2417,2.2419,2.2424,2.2427,2.2428,2.2431,2.2434,2.2436,2.2438,2.2441,2.2442,2.2444,2.2447,2.2448,2.2451,2.2452,2.2456,2.2456,2.2456,2.2456,2.2459,2.2459,2.2468,2.247,2.2461,2.2461,2.2461,0,2.242,2.2423,2.2427,2.243,2.2431,2.2435,2.2437,2.2438,2.244,2.2444,2.2446,2.2449,2.2452,2.2457,2.2458,2.2461,2.2461,2.2464,2.2461,2.2462,2.2461,2.2461,2.2462,2.2465,2.2465,2.2465,2.2465,0,2.2426,2.2427,2.243,2.2434,2.2437,2.244,2.2443,2.2445,2.2446,2.2449,2.2453,2.2455,2.2459,2.2462,2.2465,2.2467,2.2466,2.2466,2.2467,2.2467,2.2467,2.2467,2.2457,2.2466,2.2466,2.2466,2.2465,2.2465,2.243,2.2433,2.2436,2.244,2.2443,2.2446,2.2449,2.245,2.2454,2.2458,2.2458,2.2462,2.2465,2.2469,2.247,2.2473,2.2472,2.2473,2.2474,2.2474,2.2475,2.2466,2.2474,2.2474,2.2474,2.2474,2.2474,0,2.2436,2.2438,2.2442,2.2447,2.245,2.245,2.2453,2.2456,2.2459,2.2462,2.2465,2.247,2.2473,2.2475,2.2478,2.248,2.248,2.2481,2.2481,2.2481,2.2475,2.2474,2.2481,2.2481,2.2481,2.2481,2.2481,2.2481,2.2439,2.2445,2.2446,2.2453,2.2455,2.2459,2.2461,2.2464,2.2466,2.2472,2.2475,2.2476,2.2478,2.2482,2.2485,2.2486,2.2487,2.2488,2.2488,2.2483,2.2482,2.2481,2.248,2.2488,2.2488,2.2494,2.2495,2.2495]}]]